Weather History for Monarch Pass, CO

Change the Weather History Date:

Monday, May 12, 2014

  Actual Average (KGUC) Record (KGUC)
Temperature  
Mean Temperature 16 °F -  
Max Temperature 19 °F 61 °F 71 °F (2001)
Min Temperature 12 °F 29 °F 19 °F (1999)
Degree Days  
Heating Degree Days 50    
Moisture  
Dew Point 12 °F    
Average Humidity 89    
Maximum Humidity 93    
Minimum Humidity 86    
Precipitation  
Precipitation 0.00 in - - ()
Sea Level Pressure  
Sea Level Pressure 30.16 in    
Wind  
Wind Speed 29 mph (ENE)    
Max Wind Speed 32 mph    
Max Gust Speed 41 mph    
Averages and records for this station are not official NWS values.
T = Trace of Precipitation, MM = Missing Value Source: NWS Daily Summary

Daily Weather History Graph

Daily Weather History Graph

Search for Another Location

Airport:

Trip Planner

Search our weather history database for the weather conditions in past years. The results will help you decide how hot, cold, wet, or windy it might be!

Date:

Astronomy

May. 12, 2014 Rise Set
Actual Time 5:56 AM MDT 8:07 PM MDT
Civil Twilight 5:26 AM MDT 8:36 PM MDT
Nautical Twilight 4:50 AM MDT 9:13 PM MDT
Astronomical Twilight 4:11 AM MDT 9:52 PM MDT
Moon 6:09 PM MDT (5/12) 4:35 AM MDT (5/12)
Length of Visible Light 15h 10m
Length of Day
14h 10m
Waxing Gibbous, 95% of the Moon is Illuminated
May 12
Waxing Gibbous
May 14
Full
May 21
Last Quarter
May 28
New
Jun 5
First Quarter

Hourly Weather History & Observations

Time (MDT) Temp. Windchill Dew Point Humidity Pressure Visibility Wind Dir Wind Speed Gust Speed Precip Events Conditions
12:14 AM 15.8 °F - 12.2 °F 86% 30.06 in 0.2 mi North - - N/A Fog Light Freezing Fog
12:38 AM 15.8 °F - 12.2 °F 86% 30.07 in 0.2 mi North - - N/A Snow Heavy Snow
12:56 AM 15.8 °F - 12.2 °F 86% 30.06 in 0.2 mi North - - N/A Snow Heavy Snow
1:18 AM 15.8 °F - 12.2 °F 86% 30.07 in 0.2 mi North - - N/A Snow Heavy Snow
1:33 AM 15.8 °F - 12.2 °F 86% 30.06 in 0.2 mi North - - N/A Snow Light Snow
1:58 AM 14.0 °F - 12.2 °F 93% 30.06 in 0.2 mi North - - N/A Snow Light Snow
2:18 AM 14.0 °F - 12.2 °F 93% 30.06 in 0.2 mi North - - N/A Snow Heavy Snow
2:27 AM 14.0 °F - 12.2 °F 93% 30.06 in 0.2 mi North - - N/A Snow Heavy Snow
2:58 AM 14.0 °F - 12.2 °F 93% 30.05 in 0.2 mi North - - N/A Snow Light Snow
3:18 AM 14.0 °F - 12.2 °F 93% 30.04 in 0.2 mi North - - N/A Snow Heavy Snow
3:34 AM 14.0 °F - 10.4 °F 86% 30.07 in - North - - N/A   Overcast
3:53 AM 14.0 °F - 12.2 °F 93% 30.06 in - North - - N/A   Overcast
4:17 AM 14.0 °F - 10.4 °F 86% 30.07 in - North - - N/A   Overcast
4:27 AM 14.0 °F - 10.4 °F 86% 30.07 in - North - - N/A   Overcast
4:53 AM 12.2 °F - 10.4 °F 92% 30.07 in - North - - N/A   Overcast
5:18 AM 12.2 °F - 10.4 °F 92% 30.08 in - North - - N/A   Overcast
5:38 AM 12.2 °F - 10.4 °F 92% 30.08 in - North - - N/A   Overcast
5:51 AM 12.2 °F - 10.4 °F 92% 30.09 in - North - - N/A   Overcast
6:16 AM 12.2 °F - 10.4 °F 92% 30.10 in - North - - N/A   Overcast
6:37 AM 12.2 °F - 10.4 °F 92% 30.11 in - North - - N/A   Overcast
6:56 AM 12.2 °F - 10.4 °F 92% 30.11 in - North - - N/A   Overcast
7:18 AM 12.2 °F - 10.4 °F 92% 30.12 in - North - - N/A   Overcast
7:33 AM 12.2 °F - 10.4 °F 92% 30.12 in - North - - N/A   Overcast
8:18 AM 14.0 °F - 10.4 °F 86% 30.13 in - North - - N/A   Overcast
8:38 AM 12.2 °F - 10.4 °F 92% 30.14 in - North - - N/A   Overcast
8:58 AM 14.0 °F - 10.4 °F 86% 30.15 in - North - - N/A   Overcast
9:01 AM 14.0 °F - 10.4 °F 86% 30.15 in - North - - N/A   Overcast
9:26 AM 14.0 °F - 10.4 °F 86% 30.16 in - North - - N/A   Overcast
9:52 AM 14.0 °F - 12.2 °F 93% 30.17 in - North - - N/A   Overcast
10:16 AM 14.0 °F - 10.4 °F 86% 30.18 in - North - - N/A   Overcast
10:32 AM 14.0 °F - 12.2 °F 93% 30.19 in - North - - N/A   Overcast
10:58 AM 15.8 °F - 12.2 °F 86% 30.19 in - North - - N/A   Overcast
11:16 AM 15.8 °F - 12.2 °F 86% 30.20 in - North - - N/A   Overcast
11:36 AM 15.8 °F - 12.2 °F 86% 30.20 in - North - - N/A   Overcast
11:52 AM 15.8 °F - 12.2 °F 86% 30.20 in - North - - N/A   Overcast
12:16 PM 15.8 °F - 12.2 °F 86% 30.20 in - North - - N/A   Overcast
12:37 PM 15.8 °F - 12.2 °F 86% 30.20 in - North - - N/A   Overcast
12:53 PM 17.6 °F - 14.0 °F 86% 30.20 in - North - - N/A   Overcast
1:36 PM 17.6 °F - 14.0 °F 86% 30.21 in - North - - N/A   Overcast
1:52 PM 17.6 °F -1.6 °F 15.8 °F 93% 30.21 in - ENE 28.8 mph 34.5 mph N/A   Overcast
2:13 PM 19.4 °F 0.5 °F 15.8 °F 86% 30.20 in - ENE 29.9 mph 35.7 mph N/A   Overcast
2:36 PM 19.4 °F -0.0 °F 15.8 °F 86% 30.20 in - ENE 32.2 mph 39.1 mph N/A   Overcast
2:54 PM 17.6 °F -1.3 °F 15.8 °F 93% 30.21 in - ENE 27.6 mph 38.0 mph N/A   Overcast
3:15 PM 19.4 °F 0.5 °F 15.8 °F 86% 30.20 in - ENE 29.9 mph 36.8 mph N/A   Overcast
3:35 PM 19.4 °F 1.4 °F 17.6 °F 93% 30.21 in - ENE 26.5 mph 34.5 mph N/A   Overcast
4:38 PM 17.6 °F -0.6 °F 14.0 °F 86% 30.21 in - ENE 25.3 mph 41.4 mph N/A   Overcast
5:09 PM 17.6 °F - 14.0 °F 86% 30.21 in - North - - N/A   Overcast
5:49 PM 17.6 °F - 14.0 °F 86% 30.23 in - North - - N/A   Overcast
7:03 PM 15.8 °F - 12.2 °F 86% 30.24 in - North - - N/A   Overcast
7:29 PM 15.8 °F - 12.2 °F 86% 30.25 in - North - - N/A   Overcast
8:13 PM 14.0 °F - 12.2 °F 93% 30.27 in - North - - N/A   Overcast
8:34 PM 14.0 °F - 12.2 °F 93% 30.27 in - North - - N/A   Overcast
9:18 PM 14.0 °F - 12.2 °F 93% 30.30 in - North - - N/A   Overcast
9:51 PM 14.0 °F - 10.4 °F 86% 30.30 in - North - - N/A   Overcast
10:14 PM 14.0 °F - 10.4 °F 86% 30.31 in - North - - N/A   Overcast
10:34 PM 14.0 °F - 10.4 °F 86% 30.31 in - North - - N/A   Overcast
10:39 PM 12.2 °F - 10.4 °F 92% 30.31 in - North - - N/A   Overcast